ProjectID,Date,Electric Generation,Electric Utility Import,Facility Electric Load
,YYYY-MM-DD,kW,kW,kW
115,2013-02-26,12.591666666666667,,12.591666666666667
115,2013-02-27,5.191666666666666,,5.191666666666666
115,2013-02-28,15.183333333333332,,15.183333333333332
115,2013-03-01,12.195833333333333,,12.195833333333333
115,2013-03-02,17.8125,,17.8125
115,2013-03-03,28.954166666666666,,28.954166666666666
115,2013-03-04,37.25833333333333,,37.25833333333333
115,2013-03-05,35.24583333333333,,35.24583333333333
115,2013-03-06,7.154166666666666,,7.154166666666666
115,2013-03-07,11.291666666666666,,11.291666666666666
115,2013-03-08,0.5,,0.5
115,2013-03-09,26.90416666666667,,26.90416666666667
115,2013-03-10,34.583333333333336,,34.583333333333336
115,2013-03-11,19.274958333333334,,19.274958333333334
115,2013-03-12,3.7750833333333333,,3.7750833333333333
115,2013-03-13,31.720791666666667,,31.720791666666667
115,2013-03-14,30.745874999999998,,30.745874999999998
115,2013-03-15,21.520833333333332,,21.520833333333332
115,2013-03-16,9.5,,9.5
115,2013-03-17,26.454166666666666,,26.454166666666666
115,2013-03-18,16.304166666666667,,16.304166666666667
115,2013-03-19,0.0,,0.0
115,2013-03-20,0.0,,0.0
115,2013-03-21,0.0,,0.0
115,2013-03-22,0.0,,0.0
115,2013-03-23,0.0,,0.0
115,2013-03-24,0.0,,0.0
115,2013-03-25,8.195833333333333,,8.195833333333333
115,2013-03-26,30.629166666666666,,30.629166666666666
115,2013-03-27,36.658375,,36.658375
115,2013-03-28,23.591541666666668,,23.591541666666668
115,2013-03-29,31.020916666666665,,31.020916666666665
115,2013-03-30,39.71666666666667,,39.71666666666667
115,2013-03-31,20.241666666666667,,20.241666666666667
115,2013-04-01,30.245833333333334,,30.245833333333334
115,2013-04-02,40.21666666666667,,40.21666666666667
115,2013-04-03,47.93333333333334,,47.93333333333334
115,2013-04-04,44.208333333333336,,44.208333333333336
115,2013-04-05,43.35,,43.35
115,2013-04-06,48.200041666666664,,48.200041666666664
115,2013-04-07,39.8125,,39.8125
115,2013-04-08,43.07079166666667,,43.07079166666667
115,2013-04-09,42.125,,42.125
115,2013-04-10,38.025,,38.025
115,2013-04-11,15.795791666666666,,15.795791666666666
115,2013-04-12,0.0042499999999999994,,0.0042499999999999994
115,2013-04-13,26.716708333333333,,26.716708333333333
115,2013-04-14,46.491625,,46.491625
115,2013-04-15,41.75,,41.75
115,2013-04-16,37.800041666666665,,37.800041666666665
115,2013-04-17,42.870749999999994,,42.870749999999994
115,2013-04-18,7.583333333333333,,7.583333333333333
115,2013-04-19,30.820875,,30.820875
115,2013-04-20,37.85004166666666,,37.85004166666666
115,2013-04-21,52.083333333333336,,52.083333333333336
115,2013-04-22,38.779125,,38.779125
115,2013-04-23,0.0,,0.0
115,2013-04-24,0.0,,0.0
115,2013-04-25,0.0,,0.0
115,2013-04-26,0.0,,0.0
115,2013-04-27,0.0,,0.0
115,2013-04-28,0.0,,0.0
115,2013-04-29,0.0,,0.0
115,2013-04-30,42.84175,,42.84175
115,2013-05-01,24.820833333333336,,24.820833333333336
115,2013-05-02,0.012499999999999999,,0.012499999999999999
115,2013-05-03,0.0,,0.0
115,2013-05-04,0.0,,0.0
115,2013-05-05,0.0,,0.0
115,2013-05-06,0.0,,0.0
115,2013-05-07,0.0,,0.0
115,2013-05-08,15.983291666666666,,15.983291666666666
115,2013-05-09,18.73754166666667,,18.73754166666667
115,2013-05-10,0.012499999999999999,,0.012499999999999999
115,2013-05-11,13.5375,,13.5375
115,2013-05-12,49.75833333333333,,49.75833333333333
115,2013-05-13,43.99166666666667,,43.99166666666667
115,2013-05-14,50.90833333333333,,50.90833333333333
115,2013-05-15,31.804166666666664,,31.804166666666664
115,2013-05-16,39.62083333333333,,39.62083333333333
115,2013-05-17,47.6,,47.6
115,2013-05-18,14.216708333333335,,14.216708333333335
115,2013-05-19,4.391583333333333,,4.391583333333333
115,2013-05-20,38.570875,,38.570875
115,2013-05-21,48.387458333333335,,48.387458333333335
115,2013-05-22,22.87925,,22.87925
115,2013-05-23,23.954083333333333,,23.954083333333333
115,2013-05-24,8.654208333333333,,8.654208333333333
115,2013-05-25,23.233333333333334,,23.233333333333334
115,2013-05-26,48.5625,,48.5625
115,2013-05-27,54.67083333333333,,54.67083333333333
115,2013-05-28,16.966708333333333,,16.966708333333333
115,2013-05-29,39.39995833333334,,39.39995833333334
115,2013-05-30,44.270833333333336,,44.270833333333336
115,2013-05-31,45.09579166666666,,45.09579166666666
115,2013-06-01,48.84170833333334,,48.84170833333334
115,2013-06-02,43.10004166666667,,43.10004166666667
115,2013-06-03,21.09991666666667,,21.09991666666667
115,2013-06-04,54.916666666666664,,54.916666666666664
115,2013-06-05,52.825041666666664,,52.825041666666664
115,2013-06-06,29.833333333333332,,29.833333333333332
115,2013-06-07,4.229166666666667,,4.229166666666667
115,2013-06-08,0.0,,0.0
115,2013-06-09,0.0,,0.0
115,2013-06-10,0.0,,0.0
115,2013-06-11,27.920916666666667,,27.920916666666667
115,2013-06-12,51.304,,51.304
115,2013-06-13,8.94175,,8.94175
115,2013-06-14,35.099916666666665,,35.099916666666665
115,2013-06-15,48.42920833333333,,48.42920833333333
115,2013-06-16,29.783375000000003,,29.783375000000003
115,2013-06-17,41.095875,,41.095875
115,2013-06-18,27.274874999999998,,27.274874999999998
115,2013-06-19,53.129250000000006,,53.129250000000006
115,2013-06-20,52.191750000000006,,52.191750000000006
115,2013-06-21,51.3125,,51.3125
115,2013-06-22,49.816541666666666,,49.816541666666666
115,2013-06-23,46.98341666666667,,46.98341666666667
115,2013-06-24,34.691541666666666,,34.691541666666666
115,2013-06-25,39.720875,,39.720875
115,2013-06-26,33.912625,,33.912625
115,2013-06-27,41.816541666666666,,41.816541666666666
115,2013-06-28,35.42091666666666,,35.42091666666666
115,2013-06-29,43.145833333333336,,43.145833333333336
115,2013-06-30,29.729166666666668,,29.729166666666668
115,2013-07-01,12.591625,,12.591625
115,2013-07-02,24.445791666666665,,24.445791666666665
115,2013-07-03,28.725125000000002,,28.725125000000002
115,2013-07-04,37.8665,,37.8665
115,2013-07-05,48.73766666666666,,48.73766666666666
115,2013-07-06,43.029125,,43.029125
115,2013-07-07,47.75,,47.75
115,2013-07-08,38.61245833333333,,38.61245833333333
115,2013-07-09,38.54995833333333,,38.54995833333333
115,2013-07-10,33.67495833333333,,33.67495833333333
115,2013-07-11,24.808458333333334,,24.808458333333334
115,2013-07-12,17.816541666666666,,17.816541666666666
115,2013-07-13,24.362666666666666,,24.362666666666666
115,2013-07-14,37.0,,37.0
115,2013-07-15,41.42070833333333,,41.42070833333333
115,2013-07-16,0.0,,0.0
115,2013-07-17,0.0,,0.0
115,2013-07-18,44.962583333333335,,44.962583333333335
115,2013-07-19,0.016583333333333335,,0.016583333333333335
115,2013-07-20,0.0,,0.0
115,2013-07-21,0.0,,0.0
115,2013-07-22,25.637333333333334,,25.637333333333334
115,2013-07-23,32.766625,,32.766625
115,2013-07-24,38.82520833333333,,38.82520833333333
115,2013-07-25,9.766583333333333,,9.766583333333333
115,2013-07-26,37.237625,,37.237625
115,2013-07-27,40.820625,,40.820625
115,2013-07-28,21.2585,,21.2585
115,2013-07-29,44.158166666666666,,44.158166666666666
115,2013-07-30,40.4375,,40.4375
115,2013-07-31,31.575208333333332,,31.575208333333332
115,2013-08-01,8.829125,,8.829125
115,2013-08-02,40.604166666666664,,40.604166666666664
115,2013-08-03,26.137333333333334,,26.137333333333334
115,2013-08-04,46.512708333333336,,46.512708333333336
115,2013-08-05,48.391625,,48.391625
115,2013-08-06,40.1165,,40.1165
115,2013-08-07,22.31675,,22.31675
115,2013-08-08,15.199875,,15.199875
115,2013-08-09,19.375,,19.375
115,2013-08-10,35.491875,,35.491875
115,2013-08-11,36.666666666666664,,36.666666666666664
115,2013-08-12,21.903958333333335,,21.903958333333335
115,2013-08-13,16.125,,16.125
115,2013-08-14,46.729166666666664,,46.729166666666664
115,2013-08-15,46.666666666666664,,46.666666666666664
115,2013-08-16,31.783541666666665,,31.783541666666665
115,2013-08-17,35.87075,,35.87075
115,2013-08-18,19.12925,,19.12925
115,2013-08-19,26.191708333333334,,26.191708333333334
115,2013-08-20,37.43329166666667,,37.43329166666667
115,2013-08-21,36.591458333333335,,36.591458333333335
115,2013-08-22,17.691708333333334,,17.691708333333334
115,2013-08-23,35.458333333333336,,35.458333333333336
115,2013-08-24,46.645833333333336,,46.645833333333336
115,2013-08-25,44.770833333333336,,44.770833333333336
115,2013-08-26,25.641625,,25.641625
115,2013-08-27,38.225249999999996,,38.225249999999996
115,2013-08-28,17.75,,17.75
115,2013-08-29,26.591458333333335,,26.591458333333335
115,2013-08-30,0.016625,,0.016625
115,2013-08-31,25.070833333333336,,25.070833333333336
115,2013-09-01,20.7,,20.7
115,2013-09-02,12.054166666666667,,12.054166666666667
115,2013-09-03,30.34583333333333,,30.34583333333333
115,2013-09-04,42.78333333333333,,42.78333333333333
115,2013-09-05,39.15833333333333,,39.15833333333333
115,2013-09-06,43.29583333333333,,43.29583333333333
115,2013-09-07,39.49166666666667,,39.49166666666667
115,2013-09-08,35.49166666666667,,35.49166666666667
115,2013-09-09,37.4375,,37.4375
115,2013-09-10,27.47083333333333,,27.47083333333333
115,2013-09-11,33.9,,33.9
115,2013-09-12,24.770833333333332,,24.770833333333332
115,2013-09-13,1.2375,,1.2375
115,2013-09-14,0.0,,0.0
115,2013-09-15,0.0,,0.0
115,2013-09-16,0.0,,0.0
115,2013-09-17,0.0,,0.0
115,2013-09-18,0.0,,0.0
115,2013-09-19,0.0,,0.0
115,2013-09-20,0.0,,0.0
115,2013-09-21,0.0,,0.0
115,2013-09-22,0.0,,0.0
115,2013-09-23,0.0,,0.0
115,2013-09-24,0.0,,0.0
115,2013-09-25,0.0,,0.0
115,2013-09-26,0.0,,0.0
115,2013-09-27,0.0,,0.0
115,2013-09-28,0.0,,0.0
115,2013-09-29,0.0,,0.0
115,2013-09-30,0.0,,0.0
115,2013-10-01,0.0,,0.0
115,2013-10-02,0.0,,0.0
115,2013-10-03,0.0,,0.0
115,2013-10-04,0.0,,0.0
115,2013-10-05,0.0,,0.0
115,2013-10-06,0.0,,0.0
115,2013-10-07,0.0,,0.0
115,2013-10-08,0.0,,0.0
115,2013-10-09,0.0,,0.0
115,2013-10-10,0.0,,0.0
115,2013-10-11,0.0,,0.0
115,2013-10-12,0.0,,0.0
115,2013-10-13,0.0,,0.0
115,2013-10-14,0.0,,0.0
115,2013-10-15,0.0,,0.0
115,2013-10-16,0.0,,0.0
115,2013-10-17,0.0,,0.0
115,2013-10-18,0.0,,0.0
115,2013-10-19,0.0,,0.0
115,2013-10-20,0.0,,0.0
115,2013-10-21,0.0,,0.0
115,2013-10-22,0.0,,0.0
115,2013-10-23,0.0,,0.0
115,2013-10-24,0.0,,0.0
115,2013-10-25,0.0,,0.0
115,2013-10-26,0.0,,0.0
115,2013-10-27,0.0,,0.0
115,2013-10-28,0.0,,0.0
115,2013-10-29,0.0,,0.0
115,2013-10-30,0.0,,0.0
115,2013-10-31,0.0,,0.0
115,2013-11-01,0.0,,0.0
115,2013-11-02,0.0,,0.0
115,2013-11-03,0.0,,0.0
115,2013-11-04,0.0,,0.0
115,2013-11-05,0.0,,0.0
115,2013-11-06,0.0,,0.0
115,2013-11-07,0.0,,0.0
115,2013-11-08,16.3,,16.3
115,2013-11-09,14.200000000000001,,14.200000000000001
115,2013-11-10,15.129583333333334,,15.129583333333334
115,2013-11-11,15.370416666666666,,15.370416666666666
115,2013-11-12,6.5375000000000005,,6.5375000000000005
115,2013-11-13,21.283333333333335,,21.283333333333335
115,2013-11-14,20.81625,,20.81625
115,2013-11-15,15.150416666666667,,15.150416666666667
115,2013-11-16,18.5,,18.5
115,2013-11-17,4.241666666666666,,4.241666666666666
115,2013-11-18,18.732916666666664,,18.732916666666664
115,2013-11-19,20.200833333333332,,20.200833333333332
115,2013-11-20,18.590833333333332,,18.590833333333332
115,2013-11-21,16.09208333333333,,16.09208333333333
115,2013-11-22,6.466666666666666,,6.466666666666666
115,2013-11-23,16.804166666666667,,16.804166666666667
115,2013-11-24,19.516666666666666,,19.516666666666666
115,2013-11-25,19.191666666666666,,19.191666666666666
115,2013-11-26,4.837916666666667,,4.837916666666667
115,2013-11-27,2.39125,,2.39125
115,2013-11-28,18.77541666666667,,18.77541666666667
115,2013-11-29,17.34541666666667,,17.34541666666667
115,2013-11-30,16.729166666666668,,16.729166666666668
115,2013-12-01,14.050416666666665,,14.050416666666665
115,2013-12-02,9.27,,9.27
115,2013-12-03,15.066833333333333,,15.066833333333333
115,2013-12-04,10.533333333333333,,10.533333333333333
115,2013-12-05,2.4425,,2.4425
115,2013-12-06,1.2205000000000001,,1.2205000000000001
115,2013-12-07,14.475166666666667,,14.475166666666667
115,2013-12-08,3.8795,,3.8795
115,2013-12-09,3.212666666666667,,3.212666666666667
115,2013-12-10,0.0795,,0.0795
115,2013-12-11,4.637333333333333,,4.637333333333333
115,2013-12-12,12.592333333333334,,12.592333333333334
115,2013-12-13,14.2915,,14.2915
115,2013-12-14,0.23783333333333334,,0.23783333333333334
115,2013-12-15,10.538333333333332,,10.538333333333332
115,2013-12-16,14.870833333333332,,14.870833333333332
115,2013-12-17,0.0,,0.0
115,2013-12-18,1.7086666666666668,,1.7086666666666668
115,2013-12-19,11.141166666666665,,11.141166666666665
115,2013-12-20,11.549999999999999,,11.549999999999999
115,2013-12-21,12.791833333333335,,12.791833333333335
115,2013-12-22,3.9836666666666667,,3.9836666666666667
115,2013-12-23,0.98,,0.98
115,2013-12-24,14.545833333333334,,14.545833333333334
115,2013-12-25,15.404333333333334,,15.404333333333334
115,2013-12-26,8.275166666666667,,8.275166666666667
115,2013-12-27,11.337833333333334,,11.337833333333334
115,2013-12-28,13.457833333333333,,13.457833333333333
115,2013-12-29,1.3791666666666667,,1.3791666666666667
115,2013-12-30,5.445833333333333,,5.445833333333333
115,2013-12-31,10.8745,,10.8745
115,2014-01-01,9.858500000000001,,9.858500000000001
115,2014-01-02,0.2795,,0.2795
115,2014-01-03,0.8126666666666668,,0.8126666666666668
115,2014-01-04,8.791833333333333,,8.791833333333333
115,2014-01-05,1.8001666666666667,,1.8001666666666667
115,2014-01-06,3.4836666666666667,,3.4836666666666667
115,2014-01-07,18.808333333333334,,18.808333333333334
115,2014-01-08,17.400333333333332,,17.400333333333332
115,2014-01-09,18.174833333333336,,18.174833333333336
115,2014-01-10,2.8251666666666666,,2.8251666666666666
115,2014-01-11,1.5795000000000001,,1.5795000000000001
115,2014-01-12,9.304,,9.304
115,2014-01-13,14.316833333333333,,14.316833333333333
115,2014-01-14,1.121,,1.121
115,2014-01-15,14.841833333333334,,14.841833333333334
115,2014-01-16,5.2716666666666665,,5.2716666666666665
115,2014-01-17,18.441666666666666,,18.441666666666666
115,2014-01-18,6.0295,,6.0295
115,2014-01-19,13.904333333333334,,13.904333333333334
115,2014-01-20,8.391166666666667,,8.391166666666667
115,2014-01-21,0.041833333333333333,,0.041833333333333333
115,2014-01-22,0.013333333333333334,,0.013333333333333334
115,2014-01-23,0.18300000000000002,,0.18300000000000002
115,2014-01-24,0.6286666666666666,,0.6286666666666666
115,2014-01-25,0.3046666666666667,,0.3046666666666667
115,2014-01-26,0.7588333333333334,,0.7588333333333334
115,2014-01-27,6.7669999999999995,,6.7669999999999995
115,2014-01-28,15.516333333333334,,15.516333333333334
115,2014-01-29,5.2835,,5.2835
115,2014-01-30,18.712833333333332,,18.712833333333332
115,2014-01-31,10.429833333333333,,10.429833333333333
115,2014-02-01,17.150000000000002,,17.150000000000002
115,2014-02-02,16.183333333333334,,16.183333333333334
115,2014-02-03,0.2791666666666667,,0.2791666666666667
115,2014-02-04,0.38375000000000004,,0.38375000000000004
115,2014-02-05,0.27458333333333335,,0.27458333333333335
115,2014-02-06,0.35041666666666665,,0.35041666666666665
115,2014-02-07,0.29541666666666666,,0.29541666666666666
115,2014-02-08,0.15416666666666667,,0.15416666666666667
115,2014-02-09,0.03333333333333333,,0.03333333333333333
115,2014-02-10,0.21208333333333332,,0.21208333333333332
115,2014-02-11,0.2754166666666667,,0.2754166666666667
115,2014-02-12,0.29583333333333334,,0.29583333333333334
115,2014-02-13,0.19958333333333333,,0.19958333333333333
115,2014-02-14,0.24250000000000002,,0.24250000000000002
115,2014-02-15,0.14958333333333332,,0.14958333333333332
115,2014-02-16,0.020833333333333332,,0.020833333333333332
115,2014-02-17,0.029166666666666664,,0.029166666666666664
115,2014-02-18,0.30041666666666667,,0.30041666666666667
115,2014-02-19,0.3333333333333333,,0.3333333333333333
115,2014-02-20,0.3116666666666667,,0.3116666666666667
115,2014-02-21,0.3,,0.3
115,2014-02-22,3.0879166666666666,,3.0879166666666666
115,2014-02-23,19.312083333333334,,19.312083333333334
115,2014-02-24,24.14625,,24.14625
115,2014-02-25,16.34208333333333,,16.34208333333333
115,2014-02-26,13.895833333333334,,13.895833333333334
115,2014-02-27,21.270833333333332,,21.270833333333332
115,2014-02-28,28.882499999999997,,28.882499999999997
115,2014-03-01,24.75,,24.75
115,2014-03-02,5.8675,,5.8675
115,2014-03-03,3.029166666666667,,3.029166666666667
115,2014-03-04,20.25375,,20.25375
115,2014-03-05,21.388,,21.388
115,2014-03-06,28.745833333333334,,28.745833333333334
115,2014-03-07,13.041833333333335,,13.041833333333335
115,2014-03-08,26.741333333333333,,26.741333333333333
115,2014-03-09,28.221333333333334,,28.221333333333334
115,2014-03-10,17.44183333333333,,17.44183333333333
115,2014-03-11,23.762833333333333,,23.762833333333333
115,2014-03-12,10.057916666666666,,10.057916666666666
115,2014-03-13,30.229166666666668,,30.229166666666668
115,2014-03-14,24.354583333333334,,24.354583333333334
115,2014-03-15,24.74083333333333,,24.74083333333333
115,2014-03-16,26.645833333333332,,26.645833333333332
115,2014-03-17,21.125,,21.125
115,2014-03-18,12.462916666666667,,12.462916666666667
115,2014-03-19,13.633666666666668,,13.633666666666668
115,2014-03-20,24.150166666666667,,24.150166666666667
115,2014-03-21,32.533,,32.533
115,2014-03-22,25.983666666666664,,25.983666666666664
115,2014-03-23,19.121,,19.121
115,2014-03-24,30.867333333333335,,30.867333333333335
115,2014-03-25,23.912333333333333,,23.912333333333333
115,2014-03-26,32.654333333333334,,32.654333333333334
115,2014-03-27,31.04116666666667,,31.04116666666667
115,2014-03-28,8.488,,8.488
115,2014-03-29,6.196666666666666,,6.196666666666666
115,2014-03-30,9.949833333333332,,9.949833333333332
115,2014-03-31,26.258499999999998,,26.258499999999998
115,2014-04-01,30.529666666666667,,30.529666666666667
115,2014-04-02,15.687166666666668,,15.687166666666668
115,2014-04-03,30.637833333333333,,30.637833333333333
115,2014-04-04,4.9751666666666665,,4.9751666666666665
115,2014-04-05,33.708333333333336,,33.708333333333336
115,2014-04-06,35.89183333333333,,35.89183333333333
115,2014-04-07,15.563,,15.563
115,2014-04-08,22.991833333333332,,22.991833333333332
115,2014-04-09,33.713,,33.713
115,2014-04-10,36.2665,,36.2665
115,2014-04-11,25.229,,25.229
115,2014-04-12,34.84983333333333,,34.84983333333333
115,2014-04-13,30.5205,,30.5205
115,2014-04-14,30.541666666666668,,30.541666666666668
115,2014-04-15,4.125333333333333,,4.125333333333333
115,2014-04-16,34.63316666666667,,34.63316666666667
115,2014-04-17,30.04133333333333,,30.04133333333333
115,2014-04-18,29.787666666666667,,29.787666666666667
115,2014-04-19,36.94133333333333,,36.94133333333333
115,2014-04-20,37.65866666666667,,37.65866666666667
115,2014-04-21,37.38783333333333,,37.38783333333333
115,2014-04-22,30.487333333333336,,30.487333333333336
115,2014-04-23,31.2835,,31.2835
115,2014-04-24,52.716499999999996,,52.716499999999996
115,2014-04-25,45.074999999999996,,45.074999999999996
115,2014-04-26,35.91716666666667,,35.91716666666667
115,2014-04-27,41.83783333333333,,41.83783333333333
115,2014-04-28,48.691833333333335,,48.691833333333335
115,2014-04-29,8.738999999999999,,8.738999999999999
115,2014-04-30,2.750166666666667,,2.750166666666667
115,2014-05-01,34.833333333333336,,34.833333333333336
115,2014-05-02,33.86666666666667,,33.86666666666667
115,2014-05-03,38.43716666666666,,38.43716666666666
115,2014-05-04,27.575166666666664,,27.575166666666664
115,2014-05-05,50.770999999999994,,50.770999999999994
115,2014-05-06,41.23716666666667,,41.23716666666667
115,2014-05-07,45.95366666666666,,45.95366666666666
115,2014-05-08,7.2043333333333335,,7.2043333333333335
115,2014-05-09,7.966833333333334,,7.966833333333334
115,2014-05-10,33.683166666666665,,33.683166666666665
115,2014-05-11,51.916500000000006,,51.916500000000006
115,2014-05-12,36.29633333333333,,36.29633333333333
115,2014-05-13,31.545833333333334,,31.545833333333334
115,2014-05-14,0.0,,0.0
115,2014-05-15,0.0,,0.0
115,2014-05-16,0.0,,0.0
115,2014-05-17,0.0,,0.0
115,2014-05-18,0.0,,0.0
115,2014-05-19,0.0,,0.0
115,2014-05-20,36.074999999999996,,36.074999999999996
115,2014-05-21,29.891666666666666,,29.891666666666666
115,2014-05-22,10.270833333333334,,10.270833333333334
115,2014-05-23,24.5125,,24.5125
115,2014-05-24,24.1375,,24.1375
115,2014-05-25,49.237500000000004,,49.237500000000004
115,2014-05-26,48.13791666666666,,48.13791666666666
115,2014-05-27,30.824166666666667,,30.824166666666667
115,2014-05-28,11.754583333333334,,11.754583333333334
115,2014-05-29,47.67541666666667,,47.67541666666667
115,2014-05-30,41.67875,,41.67875
115,2014-05-31,44.729166666666664,,44.729166666666664
115,2014-06-01,52.36291666666667,,52.36291666666667
115,2014-06-02,53.01625000000001,,53.01625000000001
115,2014-06-03,45.337916666666665,,45.337916666666665
115,2014-06-04,35.861666666666665,,35.861666666666665
115,2014-06-05,27.555000000000003,,27.555000000000003
115,2014-06-06,43.21208333333333,,43.21208333333333
115,2014-06-07,53.45916666666667,,53.45916666666667
115,2014-06-08,47.474583333333335,,47.474583333333335
115,2014-06-09,6.120416666666666,,6.120416666666666
115,2014-06-10,27.032916666666665,,27.032916666666665
115,2014-06-11,23.242500000000003,,23.242500000000003
115,2014-06-12,5.657916666666666,,5.657916666666666
115,2014-06-13,31.465,,31.465
115,2014-06-14,32.48,,32.48
115,2014-06-15,32.48,,32.48
115,2014-06-16,32.48,,32.48
115,2014-06-17,32.48,,32.48
115,2014-06-18,32.48,,32.48
115,2014-06-19,32.48,,32.48
115,2014-06-20,32.48,,32.48
115,2014-06-21,32.48,,32.48
115,2014-06-22,32.48,,32.48
115,2014-06-23,32.48,,32.48
115,2014-06-24,32.48,,32.48
115,2014-06-25,32.48,,32.48
115,2014-06-26,32.48,,32.48
115,2014-06-27,32.48,,32.48
115,2014-06-28,32.48,,32.48
115,2014-06-29,32.48,,32.48
115,2014-06-30,32.48,,32.48
115,2014-07-01,32.48,,32.48
115,2014-07-02,32.48,,32.48
115,2014-07-03,32.48,,32.48
115,2014-07-04,32.48,,32.48
115,2014-07-05,32.48,,32.48
115,2014-07-06,32.48,,32.48
115,2014-07-07,32.48,,32.48
115,2014-07-08,32.48,,32.48
115,2014-07-09,32.48,,32.48
115,2014-07-10,32.48,,32.48
115,2014-07-11,32.48,,32.48
115,2014-07-12,32.48,,32.48
115,2014-07-13,32.48,,32.48
115,2014-07-14,32.48,,32.48
115,2014-07-15,32.48,,32.48
115,2014-07-16,32.48,,32.48
115,2014-07-17,32.48,,32.48
115,2014-07-18,32.48,,32.48
115,2014-07-19,32.48,,32.48
115,2014-07-20,32.48,,32.48
115,2014-07-21,32.48,,32.48
115,2014-07-22,32.48,,32.48
115,2014-07-23,32.48,,32.48
115,2014-07-24,32.48,,32.48
115,2014-07-25,32.48,,32.48
115,2014-07-26,32.48,,32.48
115,2014-07-27,32.48,,32.48
115,2014-07-28,32.48,,32.48
115,2014-07-29,32.48,,32.48
115,2014-07-30,32.48,,32.48
115,2014-07-31,32.48,,32.48
115,2014-08-01,32.48,,32.48
115,2014-08-02,32.48,,32.48
115,2014-08-03,32.48,,32.48
115,2014-08-04,32.48,,32.48
115,2014-08-05,32.48,,32.48
115,2014-08-06,32.48,,32.48
115,2014-08-07,32.48,,32.48
115,2014-08-08,32.48,,32.48
115,2014-08-09,32.48,,32.48
115,2014-08-10,32.48,,32.48
115,2014-08-11,32.48,,32.48
115,2014-08-12,32.48,,32.48
115,2014-08-13,32.48,,32.48
115,2014-08-14,32.48,,32.48
115,2014-08-15,32.48,,32.48
115,2014-08-16,32.48,,32.48
115,2014-08-17,32.48,,32.48
115,2014-08-18,32.48,,32.48
115,2014-08-19,32.48,,32.48
115,2014-08-20,32.48,,32.48
115,2014-08-21,32.48,,32.48
115,2014-08-22,32.48,,32.48
115,2014-08-23,32.48,,32.48
115,2014-08-24,32.48,,32.48
115,2014-08-25,32.48,,32.48
115,2014-08-26,32.48,,32.48
115,2014-08-27,32.48,,32.48
115,2014-08-28,32.48,,32.48
115,2014-08-29,32.48,,32.48
115,2014-08-30,32.48,,32.48
115,2014-08-31,32.48,,32.48
115,2014-09-01,32.48,,32.48
115,2014-09-02,32.48,,32.48
115,2014-09-03,32.48,,32.48
115,2014-09-04,32.48,,32.48
115,2014-09-05,32.48,,32.48
115,2014-09-06,32.48,,32.48
115,2014-09-07,32.48,,32.48
115,2014-09-08,32.48,,32.48
115,2014-09-09,32.48,,32.48